Regional Weather Roundup
Issued by NWS

Home | Current Version | Previous Version | Graphics & Text | Print | Product List | Glossary On
Versions: 1 2 3 4 5 6 7 8 9 10 11 12 13 14 15 16 17 18 19 20 21 22 23 24 25 26 27 28 29 30 31 32 33 34 35 36 37 38 39 40 41 42 43 44 45 46 47 48 49 50
000
ASUS45 KABQ 300501
RWRNM
NEW MEXICO REGIONAL WEATHER ROUNDUP
NATIONAL WEATHER SERVICE ALBUQUERQUE NM
1100 PM MDT SAT APR 29 2017

NOTE: "FAIR" MEANS FEW OR NO CLOUDS BELOW 12,000 FEET AGL WITH NO
       SIGNIFICANT WEATHER OR OBSTRUCTIONS TO VISION.

      THIS PRODUCT IS RELEASED AS TWO VERSIONS.  ONE VERSION NEAR
      THE TOP OF THE HOUR CONTAINING PRELIMINARY DATA FROM ALBUQUERQUE
      AND OTHER STATIONS.  A FINAL VERSION WITH ADDITIONAL DATA IS
      ISSUED ABOUT 10 MINUTES AFTER THE HOUR.

NMZ501-503-504-510>518-300600-
NORTHWEST PLATEAU/NORTHCENTRAL MOUNTAINS

CITY           SKY/WX    TMP DP  RH WIND       PRES   REMARKS
FARMINGTON     FAIR      41  23  48 NW8       30.02S
LOS ALAMOS     CLOUDY    29  29 100 CALM      30.06S
SANTA FE       FAIR      30  30 100 N10       30.04S WCI  21
TAOS             N/A     28  16  59 N14       30.03R WCI  17
ANGEL FIRE     CLOUDY    20  19  93 CALM      30.00F

$$
NMZ402-403-502-505>509-300600-
WESTCENTRAL MOUNTAINS/SOUTHWEST MOUNTAINS

CITY           SKY/WX    TMP DP  RH WIND       PRES   REMARKS
GALLUP         FAIR      32  28  85 CALM      30.10R
GRANTS         FAIR      32  32  99 SW3       30.08S
SILVER CITY    FAIR      38  23  54 NW9       30.09S WCI  31

$$
NMZ407-409-411-412-300600-
SOUTHERN DESERTS

CITY           SKY/WX    TMP DP  RH WIND       PRES   REMARKS
DEMING         FAIR      44  26  49 CALM      30.08R
LAS CRUCES     FAIR      46  30  55 N6        30.08R
ALAMOGORDO     FAIR      41  32  70 N7        30.06R
T OR C           N/A     42  32  67 N8        30.07R

$$
NMZ519>523-300600-
CENTRAL VALLEYS/CENTRAL HIGHLANDS

CITY           SKY/WX    TMP DP  RH WIND       PRES   REMARKS
ALBUQUERQUE    LGT RAIN  37  35  92 S7        30.08S WCI  32
MORIARTY ARPT  CLOUDY    33  33  99 S9        30.07S WCI  26
CLINES CORNERS LGT SNOW  26  24  92 S6        30.05S FOG     WCI  19
BELEN          DRIZZLE   38  34  87 S5        30.09S WCI  34
SOCORRO        DRIZZLE   39  37  92 CALM      30.09F

$$
NMZ524>526-539-540-300600-
SOUTHCENTRAL MOUNTAINS

CITY           SKY/WX    TMP DP  RH WIND       PRES   REMARKS
RUIDOSO        NOT AVBL

$$
NMZ527>531-300600-
NORTHEAST HIGHLANDS/NORTHEAST PLAINS

CITY           SKY/WX    TMP DP  RH WIND       PRES   REMARKS
LAS VEGAS      CLOUDY    24  20  84 NE9       30.02S WCI  14
RATON          CLOUDY    28  19  69 N23G36    29.98F WCI  14
CLAYTON        SNOW      30  29  96 N26       29.95F VSB 1/2 WCI  16

$$
NMZ532>537-300600-
EASTCENTRAL PLAINS

CITY           SKY/WX    TMP DP  RH WIND       PRES   REMARKS
SANTA ROSA     LGT SNOW  32  32 100 N5        30.06S WCI  27
TUCUMCARI      LGT SNOW  34  32  92 NW15      30.03S VSB 1   WCI  24
CANNON AFB     NOT AVBL
CLOVIS AIRPORT MOCLDY    34  27  75 N26G35    29.99S WCI  21

$$
NMZ028-029-538-300600-
SOUTHEAST PLAINS

CITY           SKY/WX    TMP DP  RH WIND       PRES   REMARKS
ROSWELL        FAIR      40  30  67 N17G25      N/A  WCI  31
ARTESIA        FAIR      37  36  93 W7G13     30.10S WCI  32
CARLSBAD       FAIR      39  35  86 W10       30.09R WCI  32
HOBBS          FAIR      37  32  81 NW13      30.05R WCI  29


$$




USA.gov is the U.S. government's official web portal to all federal, state and local government web resources and services.